TimeEST,TemperatureF,Dew PointF,Humidity,Sea Level PressureIn,VisibilityMPH,Wind Direction,Wind SpeedMPH,Gust SpeedMPH,PrecipitationIn,Events,Conditions,WindDirDegrees,DateUTC
12:15 AM,33.8,30.2,87,29.79,2.5,NW,5.8,-,N/A,,Overcast,310,2013-02-14 05:15:00
12:35 AM,33.8,30.2,87,29.80,1.8,NW,6.9,-,N/A,,Overcast,310,2013-02-14 05:35:00
12:55 AM,33.8,30.2,87,29.81,2.0,NW,4.6,-,N/A,,Overcast,310,2013-02-14 05:55:00
1:15 AM,33.8,30.2,87,29.82,2.5,NW,6.9,-,N/A,,Mostly Cloudy,320,2013-02-14 06:15:00
1:35 AM,32.0,30.2,93,29.83,2.5,NW,6.9,-,N/A,,Partly Cloudy,310,2013-02-14 06:35:00
1:55 AM,32.0,30.2,93,29.83,2.5,NNW,3.5,-,N/A,,Clear,340,2013-02-14 06:55:00
2:15 AM,32.0,30.2,93,29.84,5.0,NW,4.6,-,N/A,,Clear,320,2013-02-14 07:15:00
2:35 AM,32.0,30.2,93,29.84,5.0,NW,5.8,-,N/A,,Clear,320,2013-02-14 07:35:00
2:55 AM,33.8,30.2,87,29.85,9.0,NNW,5.8,-,N/A,,Clear,330,2013-02-14 07:55:00
3:15 AM,33.8,30.2,87,29.85,9.0,NNW,5.8,-,N/A,,Partly Cloudy,340,2013-02-14 08:15:00
3:35 AM,33.8,28.4,81,29.86,9.0,NNW,4.6,-,N/A,,Clear,330,2013-02-14 08:35:00
3:55 AM,33.8,28.4,81,29.88,10.0,WNW,6.9,-,N/A,,Clear,300,2013-02-14 08:55:00
4:15 AM,32.0,30.2,93,29.89,10.0,NW,5.8,-,N/A,,Clear,320,2013-02-14 09:15:00
4:35 AM,32.0,30.2,93,29.90,10.0,NNW,8.1,-,N/A,,Clear,330,2013-02-14 09:35:00
4:55 AM,33.8,28.4,81,29.90,10.0,NNW,8.1,-,N/A,,Clear,330,2013-02-14 09:55:00
5:15 AM,33.8,28.4,81,29.92,10.0,NW,5.8,-,N/A,,Clear,310,2013-02-14 10:15:00
5:35 AM,33.8,28.4,81,29.93,10.0,WNW,3.5,-,N/A,,Clear,290,2013-02-14 10:35:00
5:55 AM,33.8,28.4,81,29.95,10.0,WNW,4.6,-,N/A,,Clear,300,2013-02-14 10:55:00
6:15 AM,32.0,26.6,80,29.95,10.0,NW,8.1,-,N/A,,Clear,310,2013-02-14 11:15:00
6:35 AM,32.0,26.6,80,29.95,10.0,NNW,6.9,-,N/A,,Clear,330,2013-02-14 11:35:00
6:55 AM,32.0,26.6,80,29.96,10.0,NNW,6.9,-,N/A,,Clear,330,2013-02-14 11:55:00
7:15 AM,32.0,24.8,75,29.97,10.0,NW,8.1,-,N/A,,Clear,320,2013-02-14 12:15:00
7:35 AM,30.2,24.8,80,29.97,10.0,NW,10.4,-,N/A,,Clear,320,2013-02-14 12:35:00
7:55 AM,32.0,24.8,75,29.99,10.0,NNW,5.8,-,N/A,,Clear,340,2013-02-14 12:55:00
8:15 AM,32.0,26.6,80,30.00,10.0,NNW,3.5,-,N/A,,Clear,340,2013-02-14 13:15:00
8:35 AM,33.8,26.6,75,30.00,10.0,NNW,4.6,-,N/A,,Clear,330,2013-02-14 13:35:00
8:55 AM,33.8,26.6,75,30.01,10.0,NW,8.1,-,N/A,,Clear,320,2013-02-14 13:55:00
9:15 AM,33.8,26.6,75,30.02,10.0,NNW,5.8,-,N/A,,Clear,330,2013-02-14 14:15:00
9:35 AM,35.6,26.6,70,30.02,10.0,NW,9.2,-,N/A,,Clear,320,2013-02-14 14:35:00
9:55 AM,35.6,26.6,70,30.03,10.0,NW,6.9,-,N/A,,Clear,320,2013-02-14 14:55:00
10:15 AM,35.6,26.6,70,30.03,10.0,NNW,9.2,-,N/A,,Clear,330,2013-02-14 15:15:00
10:35 AM,37.4,26.6,65,30.03,10.0,NW,13.8,-,N/A,,Clear,310,2013-02-14 15:35:00
10:55 AM,37.4,26.6,65,30.03,10.0,NW,10.4,-,N/A,,Clear,310,2013-02-14 15:55:00
11:15 AM,37.4,26.6,65,30.02,10.0,NW,10.4,-,N/A,,Clear,320,2013-02-14 16:15:00
11:35 AM,39.2,26.6,61,30.02,10.0,Calm,Calm,-,N/A,,Clear,0,2013-02-14 16:35:00
11:55 AM,39.2,28.4,65,30.02,10.0,NW,9.2,-,N/A,,Clear,320,2013-02-14 16:55:00
12:15 PM,42.8,28.4,57,30.01,10.0,Calm,Calm,-,N/A,,Clear,0,2013-02-14 17:15:00
12:35 PM,42.8,28.4,57,30.02,10.0,SW,4.6,-,N/A,,Clear,230,2013-02-14 17:35:00
12:55 PM,42.8,28.4,57,30.01,10.0,NNW,3.5,-,N/A,,Clear,330,2013-02-14 17:55:00
1:15 PM,42.8,28.4,57,30.00,10.0,NW,3.5,-,N/A,,Clear,320,2013-02-14 18:15:00
1:35 PM,44.6,28.4,53,30.00,10.0,NNW,6.9,-,N/A,,Clear,330,2013-02-14 18:35:00
1:55 PM,44.6,28.4,53,29.99,10.0,WNW,3.5,-,N/A,,Clear,300,2013-02-14 18:55:00
2:15 PM,44.6,28.4,53,29.99,10.0,Calm,Calm,-,N/A,,Clear,0,2013-02-14 19:15:00
2:35 PM,44.6,28.4,53,29.98,10.0,NW,5.8,-,N/A,,Clear,310,2013-02-14 19:35:00
2:55 PM,46.4,28.4,50,29.98,10.0,WSW,5.8,-,N/A,,Clear,250,2013-02-14 19:55:00
3:15 PM,46.4,28.4,50,29.99,10.0,West,6.9,-,N/A,,Partly Cloudy,260,2013-02-14 20:15:00
3:35 PM,46.4,26.6,46,29.99,10.0,West,3.5,-,N/A,,Partly Cloudy,270,2013-02-14 20:35:00
3:55 PM,44.6,24.8,46,29.99,10.0,Calm,Calm,-,N/A,,Partly Cloudy,0,2013-02-14 20:55:00
4:15 PM,44.6,24.8,46,29.99,10.0,Calm,Calm,-,N/A,,Scattered Clouds,0,2013-02-14 21:15:00
4:35 PM,46.4,24.8,43,29.98,10.0,Calm,Calm,-,N/A,,Scattered Clouds,0,2013-02-14 21:35:00
4:55 PM,44.6,24.8,46,29.99,10.0,West,4.6,-,N/A,,Clear,280,2013-02-14 21:55:00
5:15 PM,44.6,24.8,46,29.99,10.0,Calm,Calm,-,N/A,,Clear,0,2013-02-14 22:15:00
5:35 PM,44.6,24.8,46,29.99,10.0,Calm,Calm,-,N/A,,Clear,0,2013-02-14 22:35:00
5:55 PM,42.8,24.8,49,30.00,10.0,Calm,Calm,-,N/A,,Clear,0,2013-02-14 22:55:00
6:15 PM,42.8,24.8,49,30.00,10.0,SSE,3.5,-,N/A,,Clear,150,2013-02-14 23:15:00
6:35 PM,41.0,24.8,53,30.00,10.0,SSE,4.6,-,N/A,,Clear,150,2013-02-14 23:35:00
6:55 PM,39.2,24.8,56,30.01,10.0,Calm,Calm,-,N/A,,Clear,0,2013-02-14 23:55:00
7:15 PM,37.4,24.8,60,30.01,10.0,SE,4.6,-,N/A,,Clear,140,2013-02-15 00:15:00
7:35 PM,37.4,24.8,60,30.01,10.0,SSE,3.5,-,N/A,,Clear,150,2013-02-15 00:35:00
7:55 PM,37.4,24.8,60,30.02,10.0,Calm,Calm,-,N/A,,Clear,0,2013-02-15 00:55:00
8:15 PM,37.4,24.8,60,30.02,10.0,Calm,Calm,-,N/A,,Clear,0,2013-02-15 01:15:00
8:35 PM,35.6,26.6,70,30.02,10.0,SSE,3.5,-,N/A,,Clear,150,2013-02-15 01:35:00
8:55 PM,35.6,24.8,65,30.01,10.0,SE,5.8,-,N/A,,Clear,140,2013-02-15 01:55:00
9:15 PM,33.8,24.8,70,30.02,10.0,SE,3.5,-,N/A,,Clear,130,2013-02-15 02:15:00
9:35 PM,33.8,24.8,70,30.02,10.0,SE,3.5,-,N/A,,Clear,140,2013-02-15 02:35:00
9:55 PM,33.8,24.8,70,30.02,10.0,SE,5.8,-,N/A,,Clear,140,2013-02-15 02:55:00
10:15 PM,33.8,24.8,70,30.01,10.0,SE,4.6,-,N/A,,Clear,140,2013-02-15 03:15:00
10:35 PM,33.8,24.8,70,30.02,10.0,SE,4.6,-,N/A,,Clear,140,2013-02-15 03:35:00
10:55 PM,33.8,24.8,70,30.02,10.0,SSE,5.8,-,N/A,,Clear,150,2013-02-15 03:55:00
11:15 PM,32.0,24.8,75,30.02,10.0,SE,4.6,-,N/A,,Clear,140,2013-02-15 04:15:00
11:35 PM,33.8,24.8,70,30.02,10.0,SSE,6.9,-,N/A,,Clear,150,2013-02-15 04:35:00
11:55 PM,33.8,26.6,75,30.02,10.0,SSE,8.1,-,N/A,,Clear,160,2013-02-15 04:55:00